Flag for Australia Weather past 2 weeks in Perth, Western Australia, Australia

Now
68 °F

Broken clouds.


Feels Like: 68 °F
Forecast: 58 / 70 °F
Wind: 16 mph from Southwest

Location: Belmont Perth Airport

Current Time: Oct 25, 2014 at 9:48:49 AM

Latest Report: Oct 25, 2014 at 9:00 AM


Visibility: N/A

Pressure: 30.04 "Hg

Humidity: 56%

Dew point: 52 °F

Location of PerthLocation

Historic Weather in Perth — Graph

°F

Perth temperature yesterday

Maximum temperature yesterday: 79 °F (at 1:30 PM)
Minimum temperature yesterday: 52 °F (at 2:00 AM)
Average temperature yesterday: 65 °F

Past Weeks' High & Low Weather Summary

 TemperatureHumidityPressure
High95 °F (Oct 15, 2:00 PM)100% (Oct 11, 2:30 AM)30.24 "Hg (Oct 11, 2:30 AM)
Low45 °F (Oct 11, 3:30 AM)13% (Oct 14, 1:30 PM)29.71 "Hg (Oct 16, 3:00 AM)
Average65 °F62%30.01 "Hg
* Reported Oct 10 9:00 AM — Oct 25 9:00 AM, Perth, Weather by CustomWeather, © 2014

Note: Actual official high and low records may vary slightly from our data, if they occured in-between our weather recording intervals... More about our weather records

Advertising

Perth weather history for previous 24 hours

 ConditionsComfort  
Time TempWeatherWind HumidityBarometerVisibility
9:00 AM
Oct 25
68 °FBroken clouds.16 mph56%30.04 "HgN/A
8:00 AM64 °FBroken clouds.6 mph73%30.04 "HgN/A
7:30 AM63 °FScattered clouds.6 mph77%30.04 "HgN/A
7:00 AM59 °FScattered clouds.6 mph88%30.01 "HgN/A
6:30 AM59 °FPartly sunny.7 mph88%30.01 "HgN/A
6:00 AM57 °FPartly sunny.6 mph94%30.01 "HgN/A
5:30 AM57 °FBroken clouds.6 mph94%30.01 "HgN/A
5:00 AM57 °FPartly sunny.7 mph88%29.98 "HgN/A
4:30 AM55 °FPartly sunny.6 mph94%29.98 "HgN/A
4:00 AM55 °FPassing clouds.6 mph94%29.98 "HgN/A
3:30 AM55 °FPassing clouds.5 mph94%29.98 "HgN/A
3:00 AM54 °FPartly cloudy.6 mph94%29.98 "HgN/A
2:30 AM54 °FPassing clouds.6 mph94%29.98 "HgN/A
2:00 AM54 °FPassing clouds.1 mph94%29.98 "HgN/A
1:30 AM54 °FPassing clouds.1 mph94%29.98 "HgN/A
1:00 AM55 °FPassing clouds.2 mph94%29.98 "HgN/A
12:30 AM57 °FPassing clouds.6 mph88%29.98 "HgN/A
12:00 AM57 °FClear.7 mph88%29.98 "Hg10 mi
11:30 PM
Oct 24
57 °FClear.6 mph88%29.98 "Hg10 mi
11:00 PM57 °FClear.7 mph88%29.98 "Hg10 mi
10:30 PM59 °FClear.8 mph82%29.98 "Hg10 mi
10:00 PM63 °FClear.7 mph77%29.98 "Hg10 mi
9:30 PM63 °FClear.8 mph73%29.98 "Hg10 mi
9:00 PM64 °FClear.9 mph64%29.98 "Hg10 mi
8:30 PM64 °FClear.9 mph64%29.98 "Hg10 mi
8:00 PM66 °FClear.8 mph60%29.98 "Hg10 mi
7:30 PM66 °FClear.9 mph60%29.98 "Hg10 mi
7:00 PM68 °FClear.10 mph53%29.98 "Hg10 mi
6:30 PM68 °FClear.13 mph53%29.98 "Hg10 mi
6:00 PM70 °FClear.14 mph50%29.98 "Hg10 mi
5:30 PM72 °FSunny.13 mph47%29.95 "Hg10 mi
5:00 PM73 °FSunny.14 mph44%29.95 "Hg10 mi
4:30 PM75 °FSunny.14 mph44%29.95 "Hg10 mi
4:00 PM75 °FSunny.15 mph44%29.95 "Hg10 mi
3:30 PM75 °FSunny.14 mph44%29.92 "Hg10 mi
3:00 PM77 °FSunny.14 mph42%29.95 "Hg10 mi
2:30 PM77 °FSunny.15 mph42%29.95 "Hg10 mi
2:00 PM77 °FSunny.15 mph42%29.95 "Hg10 mi
1:30 PM79 °FSunny.6 mph37%29.95 "Hg10 mi
1:00 PM77 °FSunny.7 mph36%29.98 "Hg10 mi
12:30 PM77 °FSunny.6 mph36%29.98 "Hg10 mi
12:00 PM77 °FSunny.6 mph42%29.98 "Hg10 mi
11:30 AM75 °FPassing clouds.2 mph41%30.01 "HgN/A
11:00 AM75 °FSunny.7 mph44%30.01 "Hg10 mi
10:30 AM73 °FPassing clouds.7 mph47%30.04 "HgN/A
10:00 AM72 °FPassing clouds.7 mph47%30.04 "HgN/A
9:30 AM70 °FPartly sunny.7 mph53%30.04 "HgN/A
9:00 AM70 °FPartly sunny.12 mph53%30.04 "HgN/A
Weather by CustomWeather, © 2014

See weather overviewHow to use our weather pages